EW4921 Weather Reports


Display with metric or nautical units.
time (UTC)temp
F
wind
direction
speed
MPH
gust
MPH
rain 1hr
in
rain 24hr
in
rain mn
in
humidity
%
barometer
mb
20260905200054 88 340 2.0 6.0 0.00 0.00 0.00 30 1014.6
20260905195542 88 149 2.0 8.0 0.00 0.00 0.00 30 1014.5
20260905195033 87 250 2.0 7.0 0.00 0.00 0.00 29 1014.5
20260905194534 86 200 2.0 7.0 0.00 0.00 0.00 32 1014.7
20260905194026 87 105 3.0 6.0 0.00 0.00 0.00 30 1014.6
20260905193524 87 1 1.0 7.0 0.00 0.00 0.00 31 1014.6
20260905193034 86 269 3.0 7.0 0.00 0.00 0.00 30 1014.6
20260905192557 86 53 1.0 5.0 0.00 0.00 0.00 30 1014.7
20260905192025 86 187 2.0 5.0 0.00 0.00 0.00 30 1014.8
20260905191522 86 127 2.0 8.0 0.00 0.00 0.00 31 1014.9
20260905191029 86 197 3.0 8.0 0.00 0.00 0.00 31 1015.0
20260905190553 85 155 2.0 7.0 0.00 0.00 0.00 32 1015.1
20260905190027 84 120 1.0 8.0 0.00 0.00 0.00 32 1015.1
20260905185528 84 113 2.0 7.0 0.00 0.00 0.00 34 1015.1
20260905185017 84 110 3.0 6.0 0.00 0.00 0.00 35 1015.1
20260905184536 84 89 1.0 6.0 0.00 0.00 0.00 36 1015.2
20260905184021 84 152 2.0 4.0 0.00 0.00 0.00 34 1015.2
20260905183524 84 46 1.0 4.0 0.00 0.00 0.00 37 1015.2
20260905183055 83 124 2.0 5.0 0.00 0.00 0.00 37 1015.2
20260905182554 83 203 2.0 6.0 0.00 0.00 0.00 41 1015.3
20260905182025 83 59 2.0 6.0 0.00 0.00 0.00 38 1015.4
20260905181524 83 140 2.0 6.0 0.00 0.00 0.00 39 1015.5
20260905181055 83 171 2.0 6.0 0.00 0.00 0.00 40 1015.5
20260905180627 82 269 2.0 6.0 0.00 0.00 0.00 39 1015.5
20260905180031 81 142 3.0 7.0 0.00 0.00 0.00 38 1015.5
20260905175533 80 1 2.0 5.0 0.00 0.00 0.00 41 1015.5
20260905175040 80 206 1.0 5.0 0.00 0.00 0.00 41 1015.5
20260905174601 80 1 1.0 5.0 0.00 0.00 0.00 39 1015.4
20260905174032 80 240 1.0 5.0 0.00 0.00 0.00 42 1015.5
20260905173535 79 178 2.0 5.0 0.00 0.00 0.00 40 1015.4
20260905173046 79 46 0.0 5.0 0.00 0.00 0.00 43 1015.4
20260905172544 79 229 3.0 5.0 0.00 0.00 0.00 45 1015.5
20260905172034 79 171 1.0 5.0 0.00 0.00 0.00 45 1015.4
20260905171536 78 178 3.0 5.0 0.00 0.00 0.00 47 1015.5
20260905171028 77 245 2.0 5.0 0.00 0.00 0.00 49 1015.4
20260905170552 77 28 1.0 5.0 0.00 0.00 0.00 49 1015.3
20260905170056 77 201 2.0 5.0 0.00 0.00 0.00 50 1015.5
20260905165555 76 161 2.0 4.0 0.00 0.00 0.00 51 1015.4
20260905165025 75 186 2.0 5.0 0.00 0.00 0.00 52 1015.4
20260905164538 74 229 3.0 5.0 0.00 0.00 0.00 57 1015.4
20260905164029 74 194 2.0 4.0 0.00 0.00 0.00 63 1015.4
20260905163525 73 269 2.0 3.0 0.00 0.00 0.00 65 1015.4
20260905163035 72 269 1.0 3.0 0.00 0.00 0.00 69 1015.2
20260905162534 72 117 2.0 3.0 0.00 0.00 0.00 68 1015.3
20260905162046 71 100 1.0 4.0 0.00 0.00 0.00 70 1015.2
20260905161526 70 206 2.0 4.0 0.00 0.00 0.00 74 1015.2
20260905161022 69 233 2.0 3.0 0.00 0.00 0.00 76 1015.2
20260905160542 68 178 1.0 2.0 0.00 0.00 0.00 79 1015.2
20260905160030 67 178 1.0 3.0 0.00 0.00 0.00 81 1015.3
20260905155523 65 178 2.0 3.0 0.00 0.00 0.00 89 1015.2
20260905155041 64 89 1.0 3.0 0.00 0.00 0.00 92 1015.2
20260905154541 63 108 1.0 3.0 0.00 0.00 0.00 94 1015.2
20260905154026 62 63 2.0 2.0 0.00 0.00 0.00 94 1015.2
20260905153524 60 105 1.0 2.0 0.00 0.00 0.00 94 1015.2
20260905153056 59 117 1.0 2.0 0.00 0.00 0.00 94 1015.1
20260905152536 58 89 1.0 2.0 0.00 0.00 0.00 94 1015.2
20260905152027 57 117 1.0 2.0 0.00 0.00 0.00 94 1015.1
20260905151524 56 117 1.0 2.0 0.00 0.00 0.00 94 1015.1
20260905151016 56 152 1.0 2.0 0.00 0.00 0.00 93 1015.1
20260905150611 55 89 0.0 1.0 0.00 0.00 0.00 93 1015.0
20260905150021 55 89 0.0 2.0 0.00 0.00 0.00 93 1015.0
20260905145523 54 89 1.0 2.0 0.00 0.00 0.00 93 1014.9
20260905145023 54 178 1.0 2.0 0.00 0.00 0.00 93 1014.9
20260905144522 54 135 1.0 2.0 0.00 0.00 0.00 92 1014.9
20260905144035 54 135 1.0 1.0 0.00 0.00 0.00 92 1014.8
20260905143536 54 1 1.0 1.0 0.00 0.00 0.00 92 1014.8
20260905143028 53 89 0.0 1.0 0.00 0.00 0.00 92 1014.7
20260905142543 53 1 0.0 2.0 0.00 0.00 0.00 92 1014.8
20260905142028 53 314 1.0 2.0 0.00 0.00 0.00 92 1014.8
20260905141529 53 135 0.0 2.0 0.00 0.00 0.00 92 1014.7
20260905141027 53 135 0.0 1.0 0.00 0.00 0.00 92 1014.6
20260905140550 53 89 1.0 1.0 0.00 0.00 0.00 92 1014.7
20260905140023 53 89 0.0 1.0 0.00 0.00 0.00 92 1014.5
20260905135526 53 152 0.0 1.0 0.00 0.00 0.00 92 1014.4
20260905135017 53 269 0.0 1.0 0.00 0.00 0.00 92 1014.4
20260905134534 53 314 0.0 1.0 0.00 0.00 0.00 92 1014.4
20260905134045 53 222 0.0 1.0 0.00 0.00 0.00 92 1014.4
20260905133525 53 135 0.0 1.0 0.00 0.00 0.00 92 1014.2
20260905133015 53 269 0.0 2.0 0.00 0.00 0.00 92 1014.1
20260905132537 53 135 1.0 2.0 0.00 0.00 0.00 92 1014.1
20260905132044 53 222 0.0 1.0 0.00 0.00 0.00 92 1014.1
20260905131546 53 152 0.0 1.0 0.00 0.00 0.00 92 1014.1
20260905131036 53 89 0.0 1.0 0.00 0.00 0.00 92 1014.1
20260905130600 53 46 1.0 2.0 0.00 0.00 0.00 92 1014.0
20260905130024 53 145 0.0 1.0 0.00 0.00 0.00 92 1013.9
20260905125522 54 135 0.0 1.0 0.00 0.00 0.00 92 1013.9
20260905125021 54 178 0.0 1.0 0.00 0.00 0.00 92 1014.0
20260905124521 54 222 0.0 1.0 0.00 0.00 0.00 92 1014.0
20260905124051 54 314 0.0 1.0 0.00 0.00 0.00 92 1014.0
20260905123531 54 46 0.0 1.0 0.00 0.00 0.00 91 1013.9
20260905123019 54 46 0.0 1.0 0.00 0.00 0.00 91 1013.9
20260905122519 54 178 0.0 1.0 0.00 0.00 0.00 91 1013.9
20260905122030 54 314 0.0 1.0 0.00 0.00 0.00 91 1013.9
20260905121554 54 314 0.0 2.0 0.00 0.00 0.00 92 1013.8
20260905121025 54 1 0.0 2.0 0.00 0.00 0.00 92 1013.8
20260905120614 54 331 0.0 2.0 0.00 0.00 0.00 91 1013.8
20260905120036 54 331 1.0 2.0 0.00 0.00 0.00 91 1013.9
20260905115537 54 1 0.0 2.0 0.00 0.00 0.00 91 1013.9
20260905115026 54 135 0.0 1.0 0.00 0.00 0.00 91 1013.8
20260905114526 54 1 0.0 2.0 0.00 0.00 0.00 91 1013.9
20260905114019 54 117 1.0 2.0 0.00 0.00 0.00 91 1013.9
20260905113537 55 269 1.0 2.0 0.00 0.00 0.00 91 1013.9
20260905113027 55 135 0.0 1.0 0.00 0.00 0.00 91 1013.9
20260905112528 55 1 0.0 2.0 0.00 0.00 0.00 91 1013.9
20260905112020 55 336 0.0 2.0 0.00 0.00 0.00 91 1013.9
20260905111521 55 1 1.0 1.0 0.00 0.00 0.00 91 1014.0
20260905111030 55 302 0.0 2.0 0.00 0.00 0.00 91 1013.9
20260905110625 55 46 0.0 2.0 0.00 0.00 0.00 91 1013.9
20260905110029 55 89 0.0 1.0 0.00 0.00 0.00 91 1014.0
20260905105545 55 117 1.0 1.0 0.00 0.00 0.00 91 1013.9
20260905105043 55 269 0.0 2.0 0.00 0.00 0.00 91 1014.0
20260905104520 55 72 1.0 2.0 0.00 0.00 0.00 91 1014.0
20260905104031 55 46 0.0 1.0 0.00 0.00 0.00 91 1014.0
20260905103534 55 1 0.0 2.0 0.00 0.00 0.00 91 1014.0
20260905103024 55 89 0.0 1.0 0.00 0.00 0.00 91 1014.0
20260905102543 55 1 1.0 1.0 0.00 0.00 0.00 91 1013.9
20260905102030 56 1 0.0 1.0 0.00 0.00 0.00 91 1014.0
20260905101533 56 1 0.0 1.0 0.00 0.00 0.00 91 1013.9
20260905101026 56 46 0.0 1.0 0.00 0.00 0.00 91 1013.9
20260905100620 56 63 0.0 1.0 0.00 0.00 0.00 91 1014.0
20260905100024 56 1 0.0 1.0 0.00 0.00 0.00 91 1013.9
20260905095525 56 46 0.0 1.0 0.00 0.00 0.00 91 1013.9
20260905095034 56 46 1.0 1.0 0.00 0.00 0.00 91 1014.0
20260905094514 56 314 0.0 2.0 0.00 0.00 0.00 91 1014.0
20260905094035 56 1 1.0 2.0 0.00 0.00 0.00 91 1014.0
20260905093535 56 89 0.0 2.0 0.00 0.00 0.00 91 1014.0
20260905093025 56 46 1.0 2.0 0.00 0.00 0.00 90 1014.1
20260905092526 56 1 2.0 3.0 0.00 0.00 0.00 90 1014.1
20260905092018 56 1 2.0 3.0 0.00 0.00 0.00 90 1014.1
20260905091539 56 46 1.0 2.0 0.00 0.00 0.00 90 1014.2
20260905091030 57 1 1.0 2.0 0.00 0.00 0.00 90 1014.1
20260905090546 57 1 1.0 2.0 0.00 0.00 0.00 90 1014.2
20260905090028 57 89 1.0 2.0 0.00 0.00 0.00 90 1014.2
20260905085525 57 46 1.0 2.0 0.00 0.00 0.00 90 1014.3
20260905085024 57 56 1.0 2.0 0.00 0.00 0.00 90 1014.3
20260905084525 57 1 0.0 1.0 0.00 0.00 0.00 90 1014.4
20260905084035 57 89 0.0 1.0 0.00 0.00 0.00 90 1014.4
20260905083556 57 1 0.0 1.0 0.00 0.00 0.00 90 1014.4
20260905083027 57 46 0.0 1.0 0.00 0.00 0.00 90 1014.4
20260905082525 57 89 1.0 1.0 0.00 0.00 0.00 90 1014.4
20260905082015 57 89 0.0 1.0 0.00 0.00 0.00 89 1014.6
20260905081539 57 1 0.0 1.0 0.00 0.00 0.00 89 1014.6
20260905081031 58 46 0.0 1.0 0.00 0.00 0.00 89 1014.5
20260905080555 58 89 0.0 1.0 0.00 0.00 0.00 89 1014.6
20260905080020 58 46 0.0 1.0 0.00 0.00 0.00 89 1014.7
20260905075556 58 46 0.0 1.0 0.00 0.00 0.00 89 1014.7
20260905075026 58 89 0.0 1.0 0.00 0.00 0.00 89 1014.6
20260905074527 58 46 0.0 1.0 0.00 0.00 0.00 89 1014.7
20260905074023 58 46 0.0 1.0 0.00 0.00 0.00 89 1014.5
20260905073545 58 46 0.0 2.0 0.00 0.00 0.00 89 1014.6
20260905073019 59 1 0.0 2.0 0.00 0.00 0.00 89 1014.6
20260905072540 59 63 0.0 2.0 0.00 0.00 0.00 89 1014.6
20260905072031 59 1 0.0 1.0 0.00 0.00 0.00 89 1014.6
20260905071532 59 35 0.0 1.0 0.00 0.00 0.00 89 1014.4
20260905071046 59 89 0.0 1.0 0.00 0.00 0.00 89 1014.4
20260905070542 59 89 0.0 2.0 0.00 0.00 0.00 89 1014.4
20260905070028 59 89 1.0 2.0 0.00 0.00 0.00 89 1014.3
20260905065517 59 314 0.0 2.0 0.00 0.00 0.00 89 1014.3
20260905065015 59 46 1.0 2.0 0.00 0.00 0.00 89 1014.3
20260905064536 59 331 1.0 2.0 0.00 0.00 0.00 88 1014.2
20260905064027 59 20 1.0 2.0 0.00 0.00 0.00 89 1014.1
20260905063517 60 1 1.0 2.0 0.00 0.00 0.00 88 1014.1
20260905063031 60 46 0.0 1.0 0.00 0.00 0.00 88 1014.1
20260905062555 60 340 1.0 2.0 0.00 0.00 0.00 88 1014.1
20260905062025 60 89 0.0 2.0 0.00 0.00 0.00 88 1014.2
20260905061525 60 344 1.0 2.0 0.00 0.00 0.00 88 1014.2
20260905061034 60 1 1.0 2.0 0.00 0.00 0.00 88 1014.2
20260905060557 60 1 1.0 2.0 0.00 0.00 0.00 88 1014.2
20260905060025 60 1 0.0 2.0 0.00 0.00 0.00 87 1014.3
20260905055519 61 46 0.0 1.0 0.00 0.00 0.00 87 1014.3
20260905055032 61 89 0.0 1.0 0.00 0.00 0.00 87 1014.2
20260905054535 61 1 0.0 1.0 0.00 0.00 0.00 87 1014.3
20260905054022 61 1 0.0 1.0 0.00 0.00 0.00 87 1014.3
20260905053523 61 1 0.0 1.0 0.00 0.00 0.00 87 1014.3
20260905053041 61 28 0.0 1.0 0.00 0.00 0.00 87 1014.3
20260905052522 62 46 0.0 2.0 0.00 0.00 0.00 87 1014.4
20260905052020 62 314 1.0 2.0 0.00 0.00 0.00 87 1014.5
20260905051535 62 331 0.0 1.0 0.00 0.00 0.00 87 1014.5
20260905051025 62 1 1.0 1.0 0.00 0.00 0.00 86 1014.4
20260905050551 62 340 0.0 1.0 0.00 0.00 0.00 86 1014.5
20260905050017 62 63 0.0 2.0 0.00 0.00 0.00 86 1014.4
20260905045519 63 46 0.0 2.0 0.00 0.00 0.00 86 1014.5
20260905045033 63 89 0.0 2.0 0.00 0.00 0.00 86 1014.5
20260905044531 63 46 0.0 1.0 0.00 0.00 0.00 86 1014.4
20260905044043 63 89 0.0 1.0 0.00 0.00 0.00 85 1014.4
20260905043544 63 331 0.0 1.0 0.00 0.00 0.00 85 1014.6
20260905043043 63 1 0.0 1.0 0.00 0.00 0.00 85 1014.5
20260905042524 64 269 0.0 2.0 0.00 0.00 0.00 85 1014.5
20260905042040 64 1 1.0 2.0 0.00 0.00 0.00 84 1014.4
20260905041538 64 331 0.0 1.0 0.00 0.00 0.00 84 1014.3
20260905041015 64 314 0.0 1.0 0.00 0.00 0.00 83 1014.3
20260905040601 64 1 0.0 1.0 0.00 0.00 0.00 83 1014.2
20260905040027 65 1 0.0 1.0 0.00 0.00 0.00 83 1014.1
20260905035529 65 46 0.0 1.0 0.00 0.00 0.00 82 1014.2
20260905035056 65 1 0.0 2.0 0.00 0.00 0.00 82 1014.2
20260905034537 65 1 1.0 2.0 0.00 0.00 0.00 82 1014.1
20260905034034 65 324 0.0 2.0 0.00 0.00 0.00 82 1014.0
20260905033535 66 89 1.0 3.0 0.00 0.00 0.00 82 1013.9
20260905033027 66 295 1.0 3.0 0.00 0.00 0.00 81 1013.9
20260905032519 66 46 1.0 3.0 0.00 0.00 0.00 81 1013.8
20260905032018 66 240 1.0 2.0 0.00 0.00 0.00 80 1013.7
20260905031602 67 314 1.0 2.0 0.00 0.00 0.00 80 1013.7
20260905031028 67 206 1.0 2.0 0.00 0.00 0.00 80 1013.7
20260905030552 67 314 1.0 4.0 0.00 0.00 0.00 80 1013.7
20260905030034 67 269 2.0 4.0 0.00 0.00 0.00 79 1013.6
20260905025535 68 295 1.0 3.0 0.00 0.00 0.00 78 1013.6
20260905025026 68 269 1.0 3.0 0.00 0.00 0.00 77 1013.6
20260905024521 68 178 1.0 2.0 0.00 0.00 0.00 77 1013.6
20260905024033 69 250 1.0 2.0 0.00 0.00 0.00 76 1013.6
20260905023534 69 314 1.0 3.0 0.00 0.00 0.00 75 1013.5
20260905023022 69 89 1.0 3.0 0.00 0.00 0.00 75 1013.6
20260905022524 69 1 1.0 2.0 0.00 0.00 0.00 73 1013.6
20260905022024 70 135 0.0 2.0 0.00 0.00 0.00 72 1013.5
20260905021545 70 89 1.0 2.0 0.00 0.00 0.00 72 1013.5
20260905021023 70 1 0.0 3.0 0.00 0.00 0.00 71 1013.5
20260905020547 70 15 1.0 3.0 0.00 0.00 0.00 71 1013.6
20260905020018 71 334 1.0 3.0 0.00 0.00 0.00 71 1013.5
20260905015601 71 295 1.0 4.0 0.00 0.00 0.00 71 1013.5
20260905015034 71 46 2.0 3.0 0.00 0.00 0.00 71 1013.5
20260905014536 72 15 1.0 3.0 0.00 0.00 0.00 71 1013.6
20260905014049 72 112 2.0 3.0 0.00 0.00 0.00 71 1013.6
20260905013519 72 89 0.0 3.0 0.00 0.00 0.00 70 1013.5
20260905013052 72 295 1.0 5.0 0.00 0.00 0.00 70 1013.5
20260905012534 72 317 2.0 6.0 0.00 0.00 0.00 69 1013.6
20260905012024 73 295 2.0 8.0 0.00 0.00 0.00 68 1013.7
20260905011525 73 161 2.0 8.0 0.00 0.00 0.00 67 1013.7
20260905011040 73 76 3.0 7.0 0.00 0.00 0.00 67 1013.6
20260905010542 73 72 1.0 8.0 0.00 0.00 0.00 66 1013.7
20260905010034 74 269 2.0 8.0 0.00 0.00 0.00 66 1013.7
20260905005534 74 335 3.0 7.0 0.00 0.00 0.00 66 1013.5
20260905005025 74 32 3.0 8.0 0.00 0.00 0.00 65 1013.6
20260905004541 74 321 3.0 8.0 0.00 0.00 0.00 65 1013.6
20260905004019 74 321 3.0 10.0 0.00 0.00 0.00 65 1013.5
20260905003515 75 222 2.0 10.0 0.00 0.00 0.00 63 1013.5
20260905003033 75 201 2.0 10.0 0.00 0.00 0.00 63 1013.4
20260905002535 76 1 4.0 9.0 0.00 0.00 0.00 62 1013.5
20260905002028 76 199 2.0 10.0 0.00 0.00 0.00 63 1013.4
20260905001525 77 222 4.0 10.0 0.00 0.00 0.00 61 1013.4
20260905001024 77 331 2.0 8.0 0.00 0.00 0.00 61 1013.5
20260905000548 76 28 2.0 7.0 0.00 0.00 0.00 61 1013.5
20260905000033 76 309 2.0 7.0 0.00 0.00 0.00 60 1013.4
20260904235533 76 178 3.0 9.0 0.00 0.00 0.00 60 1013.4
20260904235025 77 340 3.0 9.0 0.00 0.00 0.00 60 1013.5
20260904234524 77 216 4.0 12.0 0.00 0.00 0.00 60 1013.4
20260904234021 77 269 4.0 12.0 0.00 0.00 0.00 61 1013.4
20260904233516 78 173 4.0 10.0 0.00 0.00 0.00 60 1013.5
20260904233016 78 309 2.0 9.0 0.00 0.00 0.00 60 1013.5
20260904232538 79 243 4.0 9.0 0.00 0.00 0.00 59 1013.5
20260904232029 79 269 4.0 9.0 0.00 0.00 0.00 59 1013.4
20260904231525 80 318 2.0 9.0 0.00 0.00 0.00 59 1013.3
20260904231035 80 178 2.0 10.0 0.00 0.00 0.00 59 1013.3
20260904230605 81 347 3.0 10.0 0.00 0.00 0.00 58 1013.2
20260904230032 80 257 3.0 10.0 0.00 0.00 0.00 58 1013.3
20260904225535 80 290 3.0 6.0 0.00 0.00 0.00 57 1013.4
20260904225027 80 354 2.0 10.0 0.00 0.00 0.00 59 1013.3
20260904224525 80 279 4.0 10.0 0.00 0.00 0.00 58 1013.4
20260904224023 81 315 3.0 8.0 0.00 0.00 0.00 58 1013.3
20260904223525 81 25 3.0 8.0 0.00 0.00 0.00 57 1013.4
20260904223024 81 20 4.0 9.0 0.00 0.00 0.00 57 1013.5
20260904222525 81 226 3.0 9.0 0.00 0.00 0.00 57 1013.5
20260904222025 81 40 3.0 9.0 0.00 0.00 0.00 58 1013.5
20260904221525 81 257 4.0 9.0 0.00 0.00 0.00 59 1013.5
20260904221017 81 312 3.0 8.0 0.00 0.00 0.00 57 1013.5
20260904220542 81 327 3.0 8.0 0.00 0.00 0.00 58 1013.5
20260904220034 81 302 4.0 11.0 0.00 0.00 0.00 58 1013.6
20260904215536 81 178 3.0 11.0 0.00 0.00 0.00 59 1013.6
20260904215025 81 33 3.0 7.0 0.00 0.00 0.00 60 1013.6
20260904214527 81 186 4.0 7.0 0.00 0.00 0.00 59 1013.6
20260904214017 81 276 3.0 9.0 0.00 0.00 0.00 59 1013.6
20260904213519 81 310 4.0 9.0 0.00 0.00 0.00 58 1013.7
20260904213057 81 201 4.0 9.0 0.00 0.00 0.00 58 1013.5
20260904212537 81 269 3.0 8.0 0.00 0.00 0.00 59 1013.6
20260904212048 82 269 3.0 8.0 0.00 0.00 0.00 59 1013.6
20260904211517 82 286 3.0 10.0 0.00 0.00 0.00 58 1013.5
20260904211049 81 305 2.0 10.0 0.00 0.00 0.00 59 1013.4
20260904210552 82 89 2.0 8.0 0.00 0.00 0.00 57 1013.3
20260904210016 81 349 3.0 11.0 0.00 0.00 0.00 59 1013.4
20260904205536 82 193 3.0 13.0 0.00 0.00 0.00 57 1013.4
20260904205024 81 89 5.0 13.0 0.00 0.00 0.00 56 1013.4
20260904204524 82 20 4.0 11.0 0.00 0.00 0.00 55 1013.3
20260904204023 83 35 5.0 10.0 0.00 0.00 0.00 51 1013.4
20260904203525 84 204 3.0 10.0 0.00 0.00 0.00 48 1013.3
20260904203017 84 56 2.0 7.0 0.00 0.00 0.00 47 1013.3
20260904202626 84 72 1.0 8.0 0.00 0.00 0.00 50 1013.3
20260904202026 84 229 4.0 7.0 0.00 0.00 0.00 48 1013.4
20260904201539 83 220 4.0 9.0 0.00 0.00 0.00 48 1013.4
20260904201029 83 220 5.0 9.0 0.00 0.00 0.00 48 1013.4
20260904200603 82 218 3.0 6.0 0.00 0.00 0.00 49 1013.5